TimeCST,TemperatureF,Dew PointF,Humidity,Sea Level PressureIn,VisibilityMPH,Wind Direction,Wind SpeedMPH,Gust SpeedMPH,PrecipitationIn,Events,Conditions,WindDirDegrees,DateUTC
6:00 AM,71,65,78,29.81,6,East,5.8,,,,Overcast,90,2014-04-29 12:00:00
6:00 AM,69.8,66.2,88,29.98,6.2,East,5.8,-,N/A,,Mostly Cloudy,90,2014-04-29 12:00:00
7:00 AM,73.4,66.2,78,30.00,6.2,East,5.8,-,N/A,,Mostly Cloudy,100,2014-04-29 13:00:00
8:00 AM,77.0,64.4,65,29.99,6.2,ESE,3.5,-,N/A,,Mostly Cloudy,120,2014-04-29 14:00:00
8:17 AM,73.4,66.2,78,30.00,6.2,West,5.8,-,N/A,,Mostly Cloudy,270,2014-04-29 14:17:00
9:00 AM,76,67,66,29.86,6,West,8.1,,,,Overcast,270,2014-04-29 15:00:00
9:00 AM,75.2,66.2,73,30.01,6.2,West,8.1,-,N/A,,Mostly Cloudy,270,2014-04-29 15:00:00
10:00 AM,78.8,68.0,69,30.00,6.2,WNW,5.8,-,N/A,,Mostly Cloudy,290,2014-04-29 16:00:00
11:00 AM,80.6,66.2,61,29.99,6.2,WNW,5.8,-,N/A,,Mostly Cloudy,290,2014-04-29 17:00:00
12:00 PM,81,67,53,29.79,6,West,5.8,,,,Overcast,280,2014-04-29 18:00:00
12:00 PM,80.6,66.2,61,29.97,6.2,West,5.8,-,N/A,,Mostly Cloudy,280,2014-04-29 18:00:00
1:00 PM,80.6,66.2,61,29.94,6.2,West,3.5,-,N/A,Rain-Thunderstorm,Rain Showers,270,2014-04-29 19:00:00
2:00 PM,80.6,68.0,65,29.92,6.2,WNW,4.6,-,N/A,Rain,Rain Showers,300,2014-04-29 20:00:00
2:40 PM,75.2,69.8,83,29.91,3.1,WNW,10.4,-,N/A,Rain-Thunderstorm,Rain Showers,300,2014-04-29 20:40:00
2:45 PM,75.2,69.8,83,29.91,1.6,WNW,10.4,-,N/A,Rain-Thunderstorm,Thunderstorms and Rain,300,2014-04-29 20:45:00
3:00 PM,73,69,85,29.77,2,West,13.8,,,Rain-Thunderstorm,Thunderstorms and Rain,280,2014-04-29 21:00:00
3:00 PM,73.4,69.8,88,29.92,2.5,West,13.8,-,N/A,Fog-Rain-Thunderstorm,Thunderstorms and Rain,280,2014-04-29 21:00:00
4:00 PM,73.4,68.0,83,29.93,2.5,SW,1.2,-,N/A,Rain-Thunderstorm,Thunderstorms and Rain,230,2014-04-29 22:00:00
4:15 PM,71.6,68.0,88,29.94,0.2,ESE,8.1,-,N/A,Rain-Thunderstorm,Thunderstorms and Rain,110,2014-04-29 22:15:00
5:00 PM,69.8,68.0,94,29.96,0.6,East,4.6,-,N/A,Rain-Thunderstorm,Thunderstorms and Rain,100,2014-04-29 23:00:00
6:00 PM,69,68,95,29.83,4,ENE,4.6,,,Rain,Rain,60,2014-04-30 00:00:00
6:00 PM,68.0,68.0,100,29.96,4.3,ENE,4.6,-,N/A,Rain-Thunderstorm,Rain,60,2014-04-30 00:00:00